Track LAPAN A2 (IO-86) now! 10-day predictions LAPAN A2 (IO-86) is classified as:
1 40931U 15052B 24270.29994034 .00002074 00000-0 19195-3 0 9996 2 40931 5.9998 350.0993 0012711 76.7416 283.4129 14.78150863486449